Location: The Saddle
(36.8333°N, 80.3417°W)
Time: 08:11:55
(UTC-04:00)

Vanguard 2 Rocket - Pass Details

Date: 02 February 2023
Orbit: 555 x 3316 km, 32.9° (Epoch: 27 March)

Event Time Altitude Azimuth Distance (km) Brightness Sun altitude
Rises 12:48:53 0° 261° (W) 2,878 9.6 36.3°
Reaches altitude 10° 12:51:16 10° 256° (WSW) 1,867 8.8 36.3°
Maximum altitude 12:55:08 50° 180° (S) 710 8.5 36.2°
Drops below altitude 10° 12:59:14 10° 104° (ESE) 1,978 8.8 36.1°
Sets 13:01:51 0° 99° (E) 3,074 9.7 36.1°
